Location: Catacaguana
(10.4120°N, 66.7591°W)
Time: 06:32:24
(UTC+00:00)

Spot 4 Rocket - Pass Details

Date: 27 May 2022
Orbit: 775 x 781 km, 98.8° (Epoch: 26 June)

Event Time Altitude Azimuth Distance (km) Brightness Sun altitude
Rises 08:32:43 0° 6° (N) 3,241 7.7 -21.3°
Reaches altitude 10° 08:35:02 10° 3° (N) 2,314 6.9 -20.8°
Maximum altitude 08:40:03 61° 284° (WNW) 871 4.0 -19.7°
Enters shadow 08:42:18 32° 216° (SW) 1,294 4.7 -19.2°
